Girdwood, AK

2:34 PM AKST on February 24, 2017 (GMT -0900)
Portage Glacier

Weather History for PATO - October, 2013

Change the Weather History Date:

Thursday, October 24, 2013

  Actual Average (PAWR) Record (PAWR)
Temperature  
Mean Temperature 34 °F -  
Max Temperature 43 °F 39 °F 53 °F (1957)
Min Temperature 25 °F 33 °F 21 °F (2008)
Degree Days  
Heating Degree Days 32    
Moisture  
Dew Point 34 °F    
Average Humidity 83    
Maximum Humidity 100    
Minimum Humidity 57    
Precipitation  
Precipitation 2.59 in - - ()
Sea Level Pressure  
Sea Level Pressure 29.84 in    
Wind  
Wind Speed 13 mph (ESE)    
Max Wind Speed 30 mph    
Max Gust Speed 53 mph    
Visibility 4 miles    
Events Rain    
Averages and records for this station are not official NWS values.
T = Trace of Precipitation, MM = Missing Value Source: NWS Daily Summary

Daily Weather History Graph

Daily Weather History Graph

Search for Another Location

Airport or City:

Trip Planner

Search our weather history database for the weather conditions in past years. The results will help you decide how hot, cold, wet, or windy it might be!

Date:

Astronomy

Oct. 24, 2013 Rise Set
Actual Time 9:01 AM AKDT 6:16 PM AKDT
Civil Twilight 8:16 AM AKDT 7:01 PM AKDT
Nautical Twilight 7:26 AM AKDT 7:51 PM AKDT
Astronomical Twilight 6:37 AM AKDT 8:40 PM AKDT
Moon 10:14 PM AKDT 2:47 PM AKDT
Length of Visible Light 10h 45m
Length of Day
9h 15m
Waning Gibbous, 70% of the Moon is Illuminated
Oct 24
Waning Gibbous
Oct 26
Last Quarter
Nov 3
New
Nov 9
First Quarter
Nov 17
Full

Hourly Weather History & Observations

Time (AKDT) Temp. Windchill Dew Point Humidity Pressure Visibility Wind Dir Wind Speed Gust Speed Precip Events Conditions
12:53 AM 25.0 °F - 25.0 °F 100% 29.85 in 10.0 mi Calm Calm - N/A   Clear
1:53 AM 25.0 °F - 24.1 °F 96% 29.86 in 10.0 mi Calm Calm - N/A   Clear
2:53 AM 25.0 °F - 24.1 °F 96% 29.87 in 10.0 mi Calm Calm - N/A   Clear
3:53 AM 37.0 °F 29.8 °F 27.0 °F 67% 29.87 in 10.0 mi East 10.4 mph - N/A   Clear
4:53 AM 39.0 °F 32.3 °F 25.0 °F 57% 29.87 in 10.0 mi SE 10.4 mph 20.7 mph N/A   Clear
5:53 AM 39.0 °F 31.4 °F 26.1 °F 60% 29.89 in 10.0 mi SSE 12.7 mph 23.0 mph N/A   Clear
6:53 AM 41.0 °F 33.9 °F 28.9 °F 62% 29.91 in 10.0 mi SE 12.7 mph 23.0 mph N/A   Overcast
7:53 AM 42.1 °F 35.7 °F 28.9 °F 60% 29.89 in 10.0 mi ESE 11.5 mph 25.3 mph N/A   Overcast
8:53 AM 37.9 °F 28.9 °F 30.9 °F 76% 29.91 in 8.0 mi ESE 16.1 mph 24.2 mph 0.00 in Rain Light Rain
9:06 AM 37.9 °F 28.9 °F 30.9 °F 76% 29.91 in 9.0 mi SE 16.1 mph 25.3 mph 0.00 in Rain Light Rain
9:53 AM 39.0 °F 31.0 °F 33.1 °F 79% 29.92 in 4.0 mi SE 13.8 mph 33.4 mph 0.04 in Rain Rain
10:25 AM 37.9 °F 28.2 °F 34.0 °F 86% 29.91 in 2.5 mi ESE 18.4 mph 27.6 mph 0.06 in Rain Rain
10:33 AM 37.9 °F 29.2 °F 34.0 °F 86% 29.90 in 3.0 mi SE 15.0 mph 35.7 mph 0.07 in Rain Light Rain
10:53 AM 37.9 °F 28.5 °F 34.0 °F 86% 29.89 in 2.5 mi ESE 17.3 mph 31.1 mph 0.09 in Rain Light Rain
11:39 AM 37.9 °F 27.9 °F 35.1 °F 89% 29.88 in 3.0 mi ESE 19.6 mph 40.3 mph 0.08 in Rain Rain
11:53 AM 39.9 °F 30.5 °F 35.1 °F 83% 29.88 in 3.0 mi ESE 19.6 mph 40.3 mph 0.10 in Rain Light Rain
12:14 PM 39.0 °F 29.9 °F 35.1 °F 86% 29.86 in 2.5 mi ESE 17.3 mph 41.4 mph 0.03 in Rain Rain
12:53 PM 39.0 °F 29.6 °F 35.1 °F 86% 29.85 in 1.8 mi ESE 18.4 mph 36.8 mph 0.11 in Rain Rain
1:04 PM 39.0 °F 28.3 °F 36.0 °F 89% 29.85 in 2.5 mi ESE 24.2 mph 38.0 mph 0.02 in Rain Rain
1:44 PM 39.9 °F 29.7 °F 36.0 °F 86% 29.83 in 1.8 mi ESE 23.0 mph 41.4 mph 0.13 in Rain Rain
1:53 PM 41.0 °F 31.6 °F 36.0 °F 82% 29.84 in 1.8 mi ESE 20.7 mph 41.4 mph 0.16 in Rain Rain
2:53 PM 41.0 °F - 36.0 °F 82% 29.82 in 1.5 mi North - - 0.23 in Rain Rain
3:53 PM 39.9 °F 30.2 °F 36.0 °F 86% 29.82 in 1.2 mi ESE 20.7 mph 46.0 mph 0.25 in Rain Rain
4:51 PM 41.0 °F 31.1 °F 35.6 °F 81% 29.79 in 2.5 mi ESE 23.0 mph 46.0 mph 0.18 in Rain Rain
4:53 PM 41.0 °F 31.9 °F 36.0 °F 82% 29.78 in 2.0 mi SE 19.6 mph 41.4 mph 0.19 in Rain Rain
5:05 PM 39.9 °F 28.4 °F 35.1 °F 83% 29.81 in 1.5 mi East 29.9 mph 47.2 mph 0.04 in Rain Heavy Rain
5:29 PM 39.0 °F 29.9 °F 35.1 °F 86% 29.81 in 2.0 mi SE 17.3 mph 41.4 mph 0.13 in Rain Rain
5:39 PM 39.0 °F 29.0 °F 35.1 °F 86% 29.81 in 1.8 mi SE 20.7 mph 52.9 mph 0.17 in Rain Rain
5:53 PM 39.9 °F 30.0 °F 35.1 °F 83% 29.82 in 1.8 mi ESE 21.9 mph 42.6 mph 0.22 in Rain Rain
6:13 PM 39.9 °F 32.1 °F 36.0 °F 86% 29.81 in 3.0 mi ESE 13.8 mph 38.0 mph 0.06 in Rain Rain
6:31 PM 39.9 °F 30.5 °F 35.1 °F 83% 29.82 in 2.5 mi ESE 19.6 mph 39.1 mph 0.12 in Rain Heavy Rain
6:53 PM 39.9 °F 31.4 °F 36.0 °F 86% 29.82 in 2.5 mi ESE 16.1 mph 39.1 mph 0.19 in Rain Rain
7:09 PM 39.9 °F 31.8 °F 36.0 °F 86% 29.81 in 3.0 mi SE 15.0 mph 33.4 mph 0.04 in Rain Rain
7:28 PM 39.9 °F 29.7 °F 35.1 °F 83% 29.81 in 2.5 mi SE 23.0 mph 44.9 mph 0.11 in Rain Heavy Rain
7:44 PM 39.9 °F 30.8 °F 36.0 °F 86% 29.81 in 3.0 mi SE 18.4 mph 43.7 mph 0.15 in Rain Rain
7:53 PM 39.9 °F 29.2 °F 36.0 °F 86% 29.82 in 3.0 mi ESE 25.3 mph 41.4 mph 0.18 in Rain Rain
8:01 PM 39.9 °F 31.4 °F 36.0 °F 86% 29.81 in 2.5 mi SE 16.1 mph 41.4 mph 0.03 in Rain Rain
8:21 PM 39.9 °F 32.1 °F 36.0 °F 86% 29.81 in 3.0 mi ESE 13.8 mph 38.0 mph 0.11 in Rain Rain
8:53 PM 39.9 °F 30.2 °F 36.0 °F 86% 29.81 in 3.0 mi ESE 20.7 mph 36.8 mph 0.23 in Rain Rain
9:53 PM 39.9 °F 30.8 °F 36.0 °F 86% 29.81 in 3.0 mi ESE 18.4 mph 42.6 mph 0.22 in Rain Rain
10:53 PM 39.9 °F 31.1 °F 36.0 °F 86% 29.81 in 3.0 mi ESE 17.3 mph 36.8 mph 0.19 in Rain Rain
11:17 PM 39.9 °F 31.8 °F 36.0 °F 86% 29.82 in 2.5 mi SE 15.0 mph 31.1 mph 0.08 in Rain Rain
11:32 PM 39.9 °F 31.4 °F 36.0 °F 86% 29.82 in 3.0 mi ESE 16.1 mph 31.1 mph 0.13 in Rain Rain
11:53 PM 39.9 °F 30.0 °F 36.0 °F 86% 29.84 in 3.0 mi ESE 21.9 mph 32.2 mph 0.19 in Rain Rain